Regional Weather Roundup
Issued by NWS Memphis, TN

Home | Current Version | Previous Version | Text Only | Print | Product List | Glossary On
Versions: 1 2 3 4 5 6 7 8 9 10 11 12 13 14 15 16 17 18 19 20 21 22 23 24 25 26 27 28 29 30 31 32 33 34 35 36 37 38 39 40 41 42 43 44 45 46 47 48 49 50
000
ASUS44 KMEG 181410
RWRMEG
MEMPHIS CWA HOURLY WEATHER ROUNDUP
NATIONAL WEATHER SERVICE MEMPHIS TN
900 AM CDT SAT APR 18 2015

...WEST TENNESSEE...

CITY           SKY/WX    TMP DP  RH WIND       PRES   REMARKS
MEMPHIS INTL   CLOUDY    65  61  87 E8        29.96R
NWS MEMPHIS      N/A     64 N/A N/A MISG        N/A
JACKSON        PTSUNNY   64  62  93 CALM      29.98S
LEXINGTON      CLOUDY    61  61 100 NE3       29.98S
SAVANNAH       SUNNY     63  32  31 CALM      29.98S
DYERSBURG      PTSUNNY   63  52  67 CALM      29.98S
UNION CITY     CLOUDY    59  32  36 CALM      29.97F VSB 1/4
PARIS          CLOUDY    61  61 100 NE5       29.99S VSB 1/2


...EASTERN ARKANSAS...

CITY           SKY/WX    TMP DP  RH WIND       PRES   REMARKS
JONESBORO      CLOUDY    61  61 100 NE8       29.96F FOG
WEST MEMPHIS   CLOUDY    64  63  96 E6        29.94S
BATESVILLE     CLOUDY    63  63 100 CALM      29.97S VSB 1/2
NEWPORT        CLOUDY    64  64 100 E6        29.98S FOG
WALNUT RIDGE   CLOUDY    63  61  94 E5        29.97R
BLYTHEVILLE    CLOUDY    64  63  96 E5        29.98S
SEARCY         CLOUDY    63  63 100 CALM      29.98R FOG
STUTTGART      CLOUDY    64  61  88 E6        29.97R
PINE BLUFF     PTSUNNY   67  63  87 E8        29.96R
MONTICELLO     CLOUDY    66  64  93 E6        29.93R


...NORTH MISSISSIPPI...

CITY           SKY/WX    TMP DP  RH WIND       PRES   REMARKS
TUPELO         CLOUDY    63  60  90 E6        29.97F
OXFORD         CLOUDY    59  59 100 E6        29.98R
OLIVE BRANCH   CLOUDY    61  61 100 SE6       29.97S
TUNICA         CLOUDY    63  63 100 CALM      29.97R
CLARKSDALE       N/A     64  64 100 SE7       29.96R
CORINTH        CLOUDY    63  61  94 CALM      29.97F FOG
GREENWOOD      CLOUDY    65  60  84 E7        29.95S
COLUMBUS       CLOUDY    64  63  96 SE6       29.97S
STARKVILLE     CLOUDY    63  61  94 E7        29.98R
GOLDEN TRIANGL CLOUDY    64  61  88 SE5       29.97R


...SOUTHEAST MISSOURI...

CITY           SKY/WX    TMP DP  RH WIND       PRES   REMARKS
WEST PLAINS    CLOUDY    64  61  90 E3        29.99S
POPLAR BLUFF   CLOUDY    62  60  93 NE5       29.96F FOG
CAPE GIRARDEAU CLOUDY    63  62  97 E3        29.99S


...NORTHWEST ALABAMA...

CITY           SKY/WX    TMP DP  RH WIND       PRES   REMARKS
MUSCLE SHOALS  CLOUDY    62  60  93 SE5       30.01R FOG


...MIDDLE TENNESSEE...

CITY           SKY/WX    TMP DP  RH WIND       PRES   REMARKS
NASHVILLE      CLOUDY    65  61  87 NE3       30.00F
CLARKSVILLE    PTSUNNY   65  61  87 E6        30.00S
COLUMBIA       CLOUDY    59  32  36 CALM      29.98S VSB 3/4


...WESTERN KENTUCKY...

CITY           SKY/WX    TMP DP  RH WIND       PRES   REMARKS
PADUCAH        CLOUDY    64  61  90 CALM      29.99F FOG
FORT CAMPBELL  PTSUNNY   66  61  86 E6        29.99F


...CENTRAL ARKANSAS...

CITY           SKY/WX    TMP DP  RH WIND       PRES   REMARKS
LITTLE ROCK    PTSUNNY   68  62  81 SE6       29.96R


SKY/WX REPORTED AS FAIR MEANS FEW OR NO CLOUDS BELOW
12 THOUSAND FEET.



USA.gov is the U.S. government's official web portal to all federal, state and local government web resources and services.